User: anonymous   Login
Location: ?ejkovice
(49.0137°N, 14.3821°E)
Time: 09:22:36
(UTC+00:00)
Language:

Cosmos 841 Rocket - Orbit

View from above orbital plane
View from above orbital plane
View from above satellite
View from above satellite

Ground track
Ground track

The orbit data is extracted from the following two-line orbital elements,

1 09023U 76069B   24197.82336712  .00000469  00000-0  15571-3 0  9998
2 09023  74.0438   3.1293 0018128 250.4085 109.5113 14.40441531516654
Epoch (UTC): 15 July 2024 19:45:38
Eccentricity: 0.0018128
inclination: 74.0438°
perigee height: 744 km
apogee height: 770 km
right ascension of ascending node: 3.1293°
argument of perigee: 250.4085°
revolutions per day: 14.40441531
mean anomaly at epoch: 109.5113°
orbit number at epoch: 51665

The dashed part of the orbit path shows where the satellite is in the earth's shadow,  

DLR